Time,TemperatureF,DewpointF,PressureIn,WindDirection,WindDirectionDegrees,WindSpeedMPH,WindSpeedGustMPH,Humidity,HourlyPrecipIn,Conditions,Clouds,dailyrainin,SoftwareType,DateUTC
2013-09-04 00:01:00,75.8,71.6,30.02,ENE,68,0.4,1.6,87,0.00,,,0.00,WUHU216HW,2013-09-04 04:01:00,
2013-09-04 00:06:00,75.8,71.6,30.02,ENE,68,0.0,0.4,87,0.00,,,0.00,WUHU216HW,2013-09-04 04:06:00,
2013-09-04 00:11:00,75.8,71.6,30.02,ENE,68,0.0,0.4,87,0.00,,,0.00,WUHU216HW,2013-09-04 04:11:00,
2013-09-04 00:16:00,75.6,71.5,30.02,NNW,338,0.7,1.1,87,0.00,,,0.00,WUHU216HW,2013-09-04 04:16:00,
2013-09-04 00:21:00,75.4,71.4,30.02,SSW,203,0.7,1.1,87,0.00,,,0.00,WUHU216HW,2013-09-04 04:21:00,
2013-09-04 00:26:00,75.4,71.4,30.02,SSW,203,0.0,0.9,87,0.00,,,0.00,WUHU216HW,2013-09-04 04:26:00,
2013-09-04 00:31:00,75.2,71.2,30.01,SW,225,0.0,0.9,87,0.00,,,0.00,WUHU216HW,2013-09-04 04:31:00,
2013-09-04 00:36:00,75.2,71.2,30.01,South,180,0.9,1.1,87,0.00,,,0.00,WUHU216HW,2013-09-04 04:36:00,
2013-09-04 00:41:00,75.1,70.7,30.01,SSW,203,0.4,1.3,86,0.00,,,0.00,WUHU216HW,2013-09-04 04:41:00,
2013-09-04 00:46:00,75.1,70.7,30.01,SSW,203,0.0,1.3,86,0.00,,,0.00,WUHU216HW,2013-09-04 04:46:00,
2013-09-04 00:51:00,74.9,70.5,30.02,SW,225,0.0,0.7,86,0.00,,,0.00,WUHU216HW,2013-09-04 04:51:00,
2013-09-04 00:56:00,74.5,70.1,30.02,NNW,338,0.4,1.1,86,0.00,,,0.00,WUHU216HW,2013-09-04 04:56:00,
2013-09-04 01:01:00,74.3,69.9,30.02,NNW,338,0.0,1.1,86,0.00,,,0.00,WUHU216HW,2013-09-04 05:01:00,
2013-09-04 01:06:00,74.2,69.8,30.02,NNW,338,0.0,0.9,86,0.00,,,0.00,WUHU216HW,2013-09-04 05:06:00,
2013-09-04 01:11:00,74.2,69.8,30.01,NNW,338,0.0,0.0,86,0.00,,,0.00,WUHU216HW,2013-09-04 05:11:00,
2013-09-04 01:16:00,74.0,69.6,30.01,NNW,338,0.0,0.0,86,0.00,,,0.00,WUHU216HW,2013-09-04 05:16:00,
2013-09-04 01:21:00,74.0,69.6,30.01,NNW,338,0.0,0.0,86,0.00,,,0.00,WUHU216HW,2013-09-04 05:21:00,
2013-09-04 01:26:00,73.8,69.4,30.01,WSW,248,0.0,0.0,86,0.00,,,0.00,WUHU216HW,2013-09-04 05:26:00,
2013-09-04 01:31:00,73.8,69.4,30.01,WSW,248,0.0,0.2,86,0.00,,,0.00,WUHU216HW,2013-09-04 05:31:00,
2013-09-04 01:36:00,73.6,69.2,30.01,SSW,203,0.0,0.9,86,0.00,,,0.00,WUHU216HW,2013-09-04 05:36:00,
2013-09-04 01:41:00,73.6,69.2,30.01,SE,135,0.0,1.1,86,0.00,,,0.00,WUHU216HW,2013-09-04 05:41:00,
2013-09-04 01:46:00,73.4,69.0,30.01,SE,135,0.0,1.1,86,0.00,,,0.00,WUHU216HW,2013-09-04 05:46:00,
2013-09-04 01:51:00,73.3,68.9,30.01,South,180,0.0,0.4,86,0.00,,,0.00,WUHU216HW,2013-09-04 05:51:00,
2013-09-04 01:56:00,73.3,68.9,30.01,West,270,0.0,0.4,86,0.00,,,0.00,WUHU216HW,2013-09-04 05:56:00,
2013-09-04 02:01:00,73.1,68.7,30.01,West,270,0.0,0.2,86,0.00,,,0.00,WUHU216HW,2013-09-04 06:01:00,
2013-09-04 02:06:00,73.1,69.0,30.01,SSW,203,0.0,0.4,87,0.00,,,0.00,WUHU216HW,2013-09-04 06:06:00,
2013-09-04 02:11:00,73.1,69.0,30.01,WNW,293,0.2,1.8,87,0.00,,,0.00,WUHU216HW,2013-09-04 06:11:00,
2013-09-04 02:16:00,73.1,69.0,30.01,SW,225,0.0,1.8,87,0.00,,,0.00,WUHU216HW,2013-09-04 06:16:00,
2013-09-04 02:21:00,72.9,68.9,30.01,NNW,338,0.4,0.9,87,0.00,,,0.00,WUHU216HW,2013-09-04 06:21:00,
2013-09-04 02:26:00,72.9,68.5,30.01,NW,315,0.4,0.9,86,0.00,,,0.00,WUHU216HW,2013-09-04 06:26:00,
2013-09-04 02:31:00,72.9,68.5,30.01,NW,315,0.0,0.9,86,0.00,,,0.00,WUHU216HW,2013-09-04 06:31:00,
2013-09-04 02:36:00,72.7,68.3,30.01,WSW,248,0.0,0.4,86,0.00,,,0.00,WUHU216HW,2013-09-04 06:36:00,
2013-09-04 02:41:00,72.7,68.3,30.00,WSW,248,0.0,0.4,86,0.00,,,0.00,WUHU216HW,2013-09-04 06:41:00,
2013-09-04 02:46:00,72.7,68.3,30.00,WSW,248,0.0,0.2,86,0.00,,,0.00,WUHU216HW,2013-09-04 06:46:00,
2013-09-04 02:51:00,72.7,68.3,30.01,WSW,248,0.0,0.2,86,0.00,,,0.00,WUHU216HW,2013-09-04 06:51:00,
2013-09-04 02:56:00,72.4,68.0,30.00,WSW,248,0.0,0.0,86,0.00,,,0.00,WUHU216HW,2013-09-04 06:56:00,
2013-09-04 03:01:00,72.4,68.0,30.00,WSW,248,0.0,0.0,86,0.00,,,0.00,WUHU216HW,2013-09-04 07:01:00,
2013-09-04 03:06:00,72.4,68.0,30.00,WSW,248,0.0,0.0,86,0.00,,,0.00,WUHU216HW,2013-09-04 07:06:00,
2013-09-04 03:11:00,72.4,68.0,30.01,WSW,248,0.0,0.0,86,0.00,,,0.00,WUHU216HW,2013-09-04 07:11:00,
2013-09-04 03:16:00,72.4,68.0,30.01,WSW,248,0.0,0.0,86,0.00,,,0.00,WUHU216HW,2013-09-04 07:16:00,
2013-09-04 03:21:00,72.4,68.0,30.00,WSW,248,0.0,0.0,86,0.00,,,0.00,WUHU216HW,2013-09-04 07:21:00,
2013-09-04 03:26:00,72.4,68.0,30.00,WSW,248,0.0,0.0,86,0.00,,,0.00,WUHU216HW,2013-09-04 07:26:00,
2013-09-04 03:31:00,72.2,67.8,30.00,WSW,248,0.0,0.0,86,0.00,,,0.00,WUHU216HW,2013-09-04 07:31:00,
2013-09-04 03:36:00,72.2,67.8,30.00,WSW,248,0.0,0.0,86,0.00,,,0.00,WUHU216HW,2013-09-04 07:36:00,
2013-09-04 03:41:00,72.0,67.6,29.99,WSW,248,0.0,0.0,86,0.00,,,0.00,WUHU216HW,2013-09-04 07:41:00,
2013-09-04 03:46:00,72.0,67.6,30.00,WSW,248,0.0,0.0,86,0.00,,,0.00,WUHU216HW,2013-09-04 07:46:00,
2013-09-04 03:51:00,72.0,68.0,30.00,WSW,248,0.0,0.0,87,0.00,,,0.00,WUHU216HW,2013-09-04 07:51:00,
2013-09-04 03:56:00,71.8,67.8,30.00,WSW,248,0.0,0.0,87,0.00,,,0.00,WUHU216HW,2013-09-04 07:56:00,
2013-09-04 04:01:00,71.8,67.8,30.00,WSW,248,0.0,0.0,87,0.00,,,0.00,WUHU216HW,2013-09-04 08:01:00,
2013-09-04 04:06:00,71.8,67.8,30.00,WSW,248,0.0,0.0,87,0.00,,,0.00,WUHU216HW,2013-09-04 08:06:00,
2013-09-04 04:11:00,71.8,67.8,30.00,WSW,248,0.0,0.0,87,0.00,,,0.00,WUHU216HW,2013-09-04 08:11:00,
2013-09-04 04:16:00,71.6,67.6,30.00,WSW,248,0.0,0.0,87,0.00,,,0.00,WUHU216HW,2013-09-04 08:16:00,
2013-09-04 04:21:00,71.6,67.6,30.00,WSW,248,0.0,0.0,87,0.00,,,0.00,WUHU216HW,2013-09-04 08:21:00,
2013-09-04 04:26:00,71.6,67.6,30.00,WSW,248,0.0,0.0,87,0.00,,,0.00,WUHU216HW,2013-09-04 08:26:00,
2013-09-04 04:31:00,71.6,67.6,30.01,WSW,248,0.0,0.0,87,0.00,,,0.00,WUHU216HW,2013-09-04 08:31:00,
2013-09-04 04:36:00,71.6,67.6,30.01,WSW,248,0.0,0.0,87,0.00,,,0.00,WUHU216HW,2013-09-04 08:36:00,
2013-09-04 04:41:00,71.6,67.6,30.01,WSW,248,0.0,0.0,87,0.00,,,0.00,WUHU216HW,2013-09-04 08:41:00,
2013-09-04 04:46:00,71.6,67.6,30.01,WSW,248,0.0,0.0,87,0.00,,,0.00,WUHU216HW,2013-09-04 08:46:00,
2013-09-04 04:51:00,71.6,67.6,30.01,WSW,248,0.0,0.0,87,0.00,,,0.00,WUHU216HW,2013-09-04 08:51:00,
2013-09-04 04:56:00,71.5,67.4,30.02,WSW,248,0.0,0.0,87,0.00,,,0.00,WUHU216HW,2013-09-04 08:56:00,
2013-09-04 05:01:00,71.3,67.5,30.02,WSW,248,0.0,0.0,88,0.00,,,0.00,WUHU216HW,2013-09-04 09:01:00,
2013-09-04 05:06:00,71.3,67.5,30.02,WSW,248,0.0,0.0,88,0.00,,,0.00,WUHU216HW,2013-09-04 09:06:00,
2013-09-04 05:11:00,71.1,67.3,30.02,WSW,248,0.0,0.0,88,0.00,,,0.00,WUHU216HW,2013-09-04 09:11:00,
2013-09-04 05:16:00,71.1,67.3,30.02,West,270,0.4,0.4,88,0.00,,,0.00,WUHU216HW,2013-09-04 09:16:00,
2013-09-04 05:21:00,71.1,67.3,30.02,NW,315,0.4,0.4,88,0.00,,,0.00,WUHU216HW,2013-09-04 09:21:00,
2013-09-04 05:26:00,70.9,67.1,30.02,NW,315,0.0,0.4,88,0.00,,,0.00,WUHU216HW,2013-09-04 09:26:00,
2013-09-04 05:31:00,70.9,67.1,30.02,NW,315,0.0,0.4,88,0.00,,,0.00,WUHU216HW,2013-09-04 09:31:00,
2013-09-04 05:36:00,70.9,67.1,30.03,NW,315,0.0,0.0,88,0.00,,,0.00,WUHU216HW,2013-09-04 09:36:00,
2013-09-04 05:41:00,70.9,67.1,30.03,NW,315,0.0,0.0,88,0.00,,,0.00,WUHU216HW,2013-09-04 09:41:00,
2013-09-04 05:46:00,70.9,67.1,30.03,NW,315,0.0,0.0,88,0.00,,,0.00,WUHU216HW,2013-09-04 09:46:00,
2013-09-04 05:51:00,70.9,67.1,30.03,NW,315,0.0,0.0,88,0.00,,,0.00,WUHU216HW,2013-09-04 09:51:00,
2013-09-04 05:56:00,70.7,67.0,30.03,NW,315,0.0,0.0,88,0.00,,,0.00,WUHU216HW,2013-09-04 09:56:00,
2013-09-04 06:01:00,70.7,67.0,30.03,NW,315,0.0,0.0,88,0.00,,,0.00,WUHU216HW,2013-09-04 10:01:00,
2013-09-04 06:06:00,70.6,66.8,30.04,NW,315,0.0,0.0,88,0.00,,,0.00,WUHU216HW,2013-09-04 10:06:00,
2013-09-04 06:11:00,70.6,66.8,30.04,NW,315,0.0,0.0,88,0.00,,,0.00,WUHU216HW,2013-09-04 10:11:00,
2013-09-04 06:16:00,70.6,66.8,30.04,WSW,248,0.0,0.0,88,0.00,,,0.00,WUHU216HW,2013-09-04 10:16:00,
2013-09-04 06:21:00,70.6,66.8,30.04,SW,225,0.0,0.0,88,0.00,,,0.00,WUHU216HW,2013-09-04 10:21:00,
2013-09-04 06:26:00,70.6,66.8,30.04,SW,225,0.0,0.0,88,0.00,,,0.00,WUHU216HW,2013-09-04 10:26:00,
2013-09-04 06:31:00,70.4,66.6,30.05,SW,225,0.0,0.0,88,0.00,,,0.00,WUHU216HW,2013-09-04 10:31:00,
2013-09-04 06:36:00,70.2,66.4,30.04,SW,225,0.0,0.0,88,0.00,,,0.00,WUHU216HW,2013-09-04 10:36:00,
2013-09-04 06:41:00,70.2,66.4,30.05,SW,225,0.0,0.0,88,0.00,,,0.00,WUHU216HW,2013-09-04 10:41:00,
2013-09-04 06:46:00,70.2,66.4,30.05,SW,225,0.0,0.0,88,0.00,,,0.00,WUHU216HW,2013-09-04 10:46:00,
2013-09-04 06:51:00,70.4,66.6,30.05,SW,225,0.0,0.0,88,0.00,,,0.00,WUHU216HW,2013-09-04 10:51:00,
2013-09-04 06:56:00,70.2,66.4,30.05,SW,225,0.0,0.0,88,0.00,,,0.00,WUHU216HW,2013-09-04 10:56:00,
2013-09-04 07:01:00,70.2,66.4,30.05,SW,225,0.0,0.0,88,0.00,,,0.00,WUHU216HW,2013-09-04 11:01:00,
2013-09-04 07:06:00,70.2,66.4,30.06,SW,225,0.0,0.0,88,0.00,,,0.00,WUHU216HW,2013-09-04 11:06:00,
2013-09-04 07:11:00,70.2,66.4,30.06,SW,225,0.0,0.0,88,0.00,,,0.00,WUHU216HW,2013-09-04 11:11:00,
2013-09-04 07:16:00,70.2,66.4,30.06,SW,225,0.0,0.0,88,0.00,,,0.00,WUHU216HW,2013-09-04 11:16:00,
2013-09-04 07:21:00,70.2,66.4,30.06,SW,225,0.0,0.0,88,0.00,,,0.00,WUHU216HW,2013-09-04 11:21:00,
2013-09-04 07:26:00,70.2,66.8,30.07,WNW,293,0.0,0.0,89,0.00,,,0.00,WUHU216HW,2013-09-04 11:26:00,
2013-09-04 07:31:00,70.2,66.8,30.07,WNW,293,0.0,0.0,89,0.00,,,0.00,WUHU216HW,2013-09-04 11:31:00,
2013-09-04 07:36:00,70.6,67.1,30.07,WNW,293,0.0,0.0,89,0.00,,,0.00,WUHU216HW,2013-09-04 11:36:00,
2013-09-04 07:41:00,70.7,67.3,30.07,WNW,293,0.0,0.0,89,0.00,,,0.00,WUHU216HW,2013-09-04 11:41:00,
2013-09-04 07:46:00,70.9,67.5,30.07,WNW,293,0.0,0.0,89,0.00,,,0.00,WUHU216HW,2013-09-04 11:46:00,
2013-09-04 07:51:00,71.3,67.9,30.07,WNW,293,0.0,0.0,89,0.00,,,0.00,WUHU216HW,2013-09-04 11:51:00,
2013-09-04 07:56:00,71.5,68.0,30.07,WNW,293,0.0,0.0,89,0.00,,,0.00,WUHU216HW,2013-09-04 11:56:00,
2013-09-04 08:01:00,71.6,68.2,30.08,WNW,293,0.0,0.0,89,0.00,,,0.00,WUHU216HW,2013-09-04 12:01:00,
2013-09-04 08:06:00,72.0,68.2,30.08,WNW,293,0.0,0.0,88,0.00,,,0.00,WUHU216HW,2013-09-04 12:06:00,
2013-09-04 08:11:00,72.5,68.8,30.08,WNW,293,0.0,0.0,88,0.00,,,0.00,WUHU216HW,2013-09-04 12:11:00,
2013-09-04 08:16:00,72.9,69.1,30.09,SW,225,0.0,0.0,88,0.00,,,0.00,WUHU216HW,2013-09-04 12:16:00,
2013-09-04 08:21:00,73.3,69.8,30.09,South,180,0.0,0.7,89,0.00,,,0.00,WUHU216HW,2013-09-04 12:21:00,
2013-09-04 08:26:00,73.6,70.2,30.09,SSE,158,0.0,0.7,89,0.00,,,0.00,WUHU216HW,2013-09-04 12:26:00,
2013-09-04 08:31:00,74.2,70.7,30.09,SSE,158,0.0,0.0,89,0.00,,,0.00,WUHU216HW,2013-09-04 12:31:00,
2013-09-04 08:36:00,74.5,71.1,30.09,SE,135,0.0,1.1,89,0.00,,,0.00,WUHU216HW,2013-09-04 12:36:00,
2013-09-04 08:41:00,74.9,71.1,30.09,SE,135,0.0,1.1,88,0.00,,,0.00,WUHU216HW,2013-09-04 12:41:00,
2013-09-04 08:46:00,75.2,71.5,30.09,NE,45,0.0,0.4,88,0.00,,,0.00,WUHU216HW,2013-09-04 12:46:00,
2013-09-04 08:51:00,75.6,71.5,30.09,NNW,338,0.4,1.1,87,0.00,,,0.00,WUHU216HW,2013-09-04 12:51:00,
2013-09-04 08:56:00,76.0,71.5,30.09,North,0,0.4,1.3,86,0.00,,,0.00,WUHU216HW,2013-09-04 12:56:00,
2013-09-04 09:01:00,76.1,71.3,30.09,ENE,68,0.7,2.5,85,0.00,,,0.00,WUHU216HW,2013-09-04 13:01:00,
2013-09-04 09:06:00,76.3,71.1,30.09,NNW,338,0.9,2.5,84,0.00,,,0.00,WUHU216HW,2013-09-04 13:06:00,
2013-09-04 09:11:00,76.7,71.5,30.09,ESE,113,1.1,2.5,84,0.00,,,0.00,WUHU216HW,2013-09-04 13:11:00,
2013-09-04 09:16:00,76.9,71.3,30.09,ESE,113,0.0,2.5,83,0.00,,,0.00,WUHU216HW,2013-09-04 13:16:00,
2013-09-04 09:21:00,77.4,71.8,30.09,NNE,23,0.7,2.5,83,0.00,,,0.00,WUHU216HW,2013-09-04 13:21:00,
2013-09-04 09:26:00,77.8,71.8,30.10,ENE,68,0.4,2.5,82,0.00,,,0.00,WUHU216HW,2013-09-04 13:26:00,
2013-09-04 09:31:00,78.3,72.0,30.10,ENE,68,1.1,2.9,81,0.00,,,0.00,WUHU216HW,2013-09-04 13:31:00,
2013-09-04 09:36:00,78.7,72.4,30.10,ENE,68,0.7,2.9,81,0.00,,,0.00,WUHU216HW,2013-09-04 13:36:00,
2013-09-04 09:41:00,79.0,72.0,30.10,North,0,0.4,5.4,79,0.00,,,0.00,WUHU216HW,2013-09-04 13:41:00,
2013-09-04 09:46:00,79.0,71.6,30.10,ENE,68,1.3,5.4,78,0.00,,,0.00,WUHU216HW,2013-09-04 13:46:00,
2013-09-04 09:51:00,79.6,72.6,30.10,SE,135,0.4,3.1,79,0.00,,,0.00,WUHU216HW,2013-09-04 13:51:00,
2013-09-04 09:56:00,80.3,73.3,30.10,ENE,68,0.0,3.1,79,0.00,,,0.00,WUHU216HW,2013-09-04 13:56:00,
2013-09-04 10:01:00,80.6,73.2,30.10,ESE,113,0.4,1.8,78,0.00,,,0.00,WUHU216HW,2013-09-04 14:01:00,
2013-09-04 10:06:00,81.0,73.5,30.10,South,180,0.9,3.1,78,0.00,,,0.00,WUHU216HW,2013-09-04 14:06:00,
2013-09-04 10:11:00,81.7,74.6,30.10,SSE,158,0.9,3.1,79,0.00,,,0.00,WUHU216HW,2013-09-04 14:11:00,
2013-09-04 10:16:00,82.3,74.3,30.10,ENE,68,0.4,1.8,77,0.00,,,0.00,WUHU216HW,2013-09-04 14:16:00,
2013-09-04 10:21:00,82.8,74.9,30.10,ENE,68,0.7,1.3,77,0.00,,,0.00,WUHU216HW,2013-09-04 14:21:00,
2013-09-04 10:26:00,83.2,74.8,30.11,ESE,113,0.2,5.4,76,0.00,,,0.00,WUHU216HW,2013-09-04 14:26:00,
2013-09-04 10:31:00,83.5,75.2,30.11,WSW,248,0.4,5.4,76,0.00,,,0.00,WUHU216HW,2013-09-04 14:31:00,
2013-09-04 10:36:00,84.1,74.4,30.11,NNE,23,0.4,4.3,73,0.00,,,0.00,WUHU216HW,2013-09-04 14:36:00,
2013-09-04 10:41:00,84.1,75.2,30.11,ESE,113,1.3,4.3,75,0.00,,,0.00,WUHU216HW,2013-09-04 14:41:00,
2013-09-04 10:46:00,84.2,75.1,30.11,NE,45,0.2,2.2,74,0.00,,,0.00,WUHU216HW,2013-09-04 14:46:00,
2013-09-04 10:51:00,84.8,75.6,30.11,NNW,338,0.2,2.2,74,0.00,,,0.00,WUHU216HW,2013-09-04 14:51:00,
2013-09-04 10:56:00,85.1,75.5,30.11,SW,225,0.7,2.0,73,0.00,,,0.00,WUHU216HW,2013-09-04 14:56:00,
2013-09-04 11:01:00,85.7,76.1,30.11,SSE,158,0.9,1.6,73,0.00,,,0.00,WUHU216HW,2013-09-04 15:01:00,
2013-09-04 11:06:00,86.4,76.3,30.11,East,90,2.5,2.5,72,0.00,,,0.00,WUHU216HW,2013-09-04 15:06:00,
2013-09-04 11:11:00,86.8,76.7,30.11,ENE,68,0.4,2.5,72,0.00,,,0.00,WUHU216HW,2013-09-04 15:11:00,
2013-09-04 11:16:00,87.5,77.0,30.11,ESE,113,1.6,6.7,71,0.00,,,0.00,WUHU216HW,2013-09-04 15:16:00,
2013-09-04 11:21:00,87.8,76.9,30.11,ESE,113,2.2,6.7,70,0.00,,,0.00,WUHU216HW,2013-09-04 15:21:00,
2013-09-04 11:26:00,88.0,76.2,30.11,East,90,1.6,4.5,68,0.00,,,0.00,WUHU216HW,2013-09-04 15:26:00,
2013-09-04 11:31:00,88.2,76.3,30.11,SSE,158,0.4,4.5,68,0.00,,,0.00,WUHU216HW,2013-09-04 15:31:00,
2013-09-04 11:36:00,88.6,76.2,30.11,East,90,1.8,4.3,67,0.00,,,0.00,WUHU216HW,2013-09-04 15:36:00,
2013-09-04 11:41:00,88.7,76.4,30.10,SE,135,0.9,2.9,67,0.00,,,0.00,WUHU216HW,2013-09-04 15:41:00,
2013-09-04 11:46:00,89.1,77.2,30.10,SSE,158,1.6,1.8,68,0.00,,,0.00,WUHU216HW,2013-09-04 15:46:00,
2013-09-04 11:51:00,89.6,77.2,30.10,SSE,158,1.3,1.8,67,0.00,,,0.00,WUHU216HW,2013-09-04 15:51:00,
2013-09-04 11:56:00,90.0,77.6,30.11,SSW,203,0.4,2.5,67,0.00,,,0.00,WUHU216HW,2013-09-04 15:56:00,
2013-09-04 12:01:00,90.7,77.3,30.11,ESE,113,0.0,2.5,65,0.00,,,0.00,WUHU216HW,2013-09-04 16:01:00,
2013-09-04 12:06:00,90.7,76.3,30.10,NNE,23,0.4,1.3,63,0.00,,,0.00,WUHU216HW,2013-09-04 16:06:00,
2013-09-04 12:11:00,90.5,76.2,30.11,WNW,293,1.3,3.4,63,0.00,,,0.00,WUHU216HW,2013-09-04 16:11:00,
2013-09-04 12:16:00,90.7,76.3,30.11,SW,225,0.4,3.4,63,0.00,,,0.00,WUHU216HW,2013-09-04 16:16:00,
2013-09-04 12:21:00,91.1,75.8,30.10,North,0,0.7,2.9,61,0.00,,,0.00,WUHU216HW,2013-09-04 16:21:00,
2013-09-04 12:26:00,91.3,75.9,30.10,WNW,293,2.5,2.5,61,0.00,,,0.00,WUHU216HW,2013-09-04 16:26:00,
2013-09-04 12:31:00,91.8,76.4,30.10,NNW,338,0.2,2.5,61,0.00,,,0.00,WUHU216HW,2013-09-04 16:31:00,
2013-09-04 12:36:00,92.2,74.7,30.10,ESE,113,0.4,2.5,57,0.00,,,0.00,WUHU216HW,2013-09-04 16:36:00,
2013-09-04 12:41:00,92.5,76.7,30.10,SE,135,1.1,1.3,60,0.00,,,0.00,WUHU216HW,2013-09-04 16:41:00,
2013-09-04 12:46:00,93.4,77.1,30.10,West,270,1.1,2.5,59,0.00,,,0.00,WUHU216HW,2013-09-04 16:46:00,
2013-09-04 12:51:00,93.8,76.2,30.10,SSW,203,1.1,2.5,57,0.00,,,0.00,WUHU216HW,2013-09-04 16:51:00,
2013-09-04 12:56:00,94.0,75.9,30.10,WNW,293,1.6,3.1,56,0.00,,,0.00,WUHU216HW,2013-09-04 16:56:00,
2013-09-04 13:01:00,94.0,75.3,30.10,NW,315,0.0,3.1,55,0.00,,,0.00,WUHU216HW,2013-09-04 17:01:00,
2013-09-04 13:06:00,93.8,75.2,30.10,WNW,293,2.5,2.5,55,0.00,,,0.00,WUHU216HW,2013-09-04 17:06:00,
2013-09-04 13:11:00,93.8,74.6,30.10,SSW,203,0.2,4.3,54,0.00,,,0.00,WUHU216HW,2013-09-04 17:11:00,
2013-09-04 13:16:00,94.3,75.6,30.10,NW,315,0.9,4.3,55,0.00,,,0.00,WUHU216HW,2013-09-04 17:16:00,
2013-09-04 13:21:00,95.0,75.2,30.09,North,0,0.7,3.1,53,0.00,,,0.00,WUHU216HW,2013-09-04 17:21:00,
2013-09-04 13:26:00,95.4,75.1,30.09,North,0,0.9,4.7,52,0.00,,,0.00,WUHU216HW,2013-09-04 17:26:00,
2013-09-04 13:31:00,95.4,74.5,30.09,SE,135,2.0,4.7,51,0.00,,,0.00,WUHU216HW,2013-09-04 17:31:00,
2013-09-04 13:36:00,95.2,73.8,30.09,North,0,2.7,3.6,50,0.00,,,0.00,WUHU216HW,2013-09-04 17:36:00,
2013-09-04 13:41:00,94.9,74.5,30.09,SSW,203,0.4,2.7,52,0.00,,,0.00,WUHU216HW,2013-09-04 17:41:00,
2013-09-04 13:46:00,94.7,74.3,30.09,NNW,338,0.9,2.7,52,0.00,,,0.00,WUHU216HW,2013-09-04 17:46:00,
2013-09-04 13:51:00,95.0,74.7,30.09,NNW,338,0.2,2.5,52,0.00,,,0.00,WUHU216HW,2013-09-04 17:51:00,
2013-09-04 13:56:00,95.4,73.3,30.09,WNW,293,0.4,3.4,49,0.00,,,0.00,WUHU216HW,2013-09-04 17:56:00,
2013-09-04 14:01:00,94.7,73.8,30.09,WSW,248,0.4,3.4,51,0.00,,,0.00,WUHU216HW,2013-09-04 18:01:00,
2013-09-04 14:06:00,94.1,73.3,30.09,WNW,293,1.1,2.5,51,0.00,,,0.00,WUHU216HW,2013-09-04 18:06:00,
2013-09-04 14:11:00,94.1,73.8,30.09,WNW,293,0.0,2.7,52,0.00,,,0.00,WUHU216HW,2013-09-04 18:11:00,
2013-09-04 14:16:00,94.7,74.3,30.09,NNW,338,0.7,2.7,52,0.00,,,0.00,WUHU216HW,2013-09-04 18:16:00,
2013-09-04 14:21:00,95.4,74.5,30.09,SSW,203,0.7,3.1,51,0.00,,,0.00,WUHU216HW,2013-09-04 18:21:00,
2013-09-04 14:26:00,95.4,74.0,30.08,SE,135,1.1,4.9,50,0.00,,,0.00,WUHU216HW,2013-09-04 18:26:00,
2013-09-04 14:31:00,95.9,73.8,30.08,SW,225,1.1,4.9,49,0.00,,,0.00,WUHU216HW,2013-09-04 18:31:00,
2013-09-04 14:36:00,96.1,73.3,30.08,SE,135,1.1,3.1,48,0.00,,,0.00,WUHU216HW,2013-09-04 18:36:00,
2013-09-04 14:41:00,96.3,74.1,30.09,NW,315,0.4,3.1,49,0.00,,,0.00,WUHU216HW,2013-09-04 18:41:00,
2013-09-04 14:46:00,96.3,73.5,30.09,SSE,158,2.2,3.4,48,0.00,,,0.00,WUHU216HW,2013-09-04 18:46:00,
2013-09-04 14:51:00,95.8,71.7,30.08,North,0,1.3,3.4,46,0.00,,,0.00,WUHU216HW,2013-09-04 18:51:00,
2013-09-04 14:56:00,94.7,71.3,30.08,North,0,1.1,3.1,47,0.00,,,0.00,WUHU216HW,2013-09-04 18:56:00,
2013-09-04 15:01:00,94.3,72.9,30.08,NW,315,1.3,2.5,50,0.00,,,0.00,WUHU216HW,2013-09-04 19:01:00,
2013-09-04 15:06:00,94.7,72.6,30.08,WNW,293,2.0,4.7,49,0.00,,,0.00,WUHU216HW,2013-09-04 19:06:00,
2013-09-04 15:11:00,95.2,73.1,30.08,SSE,158,2.7,4.7,49,0.00,,,0.00,WUHU216HW,2013-09-04 19:11:00,
2013-09-04 15:16:00,95.9,73.8,30.08,WNW,293,0.7,3.1,49,0.00,,,0.00,WUHU216HW,2013-09-04 19:16:00,
2013-09-04 15:21:00,96.1,73.3,30.08,SSW,203,1.8,2.7,48,0.00,,,0.00,WUHU216HW,2013-09-04 19:21:00,
2013-09-04 15:26:00,96.5,73.6,30.07,WNW,293,1.6,2.5,48,0.00,,,0.00,WUHU216HW,2013-09-04 19:26:00,
2013-09-04 15:31:00,96.8,73.3,30.07,South,180,1.1,2.7,47,0.00,,,0.00,WUHU216HW,2013-09-04 19:31:00,
2013-09-04 15:36:00,97.0,72.1,30.07,NNW,338,2.7,3.6,45,0.00,,,0.00,WUHU216HW,2013-09-04 19:36:00,
2013-09-04 15:41:00,96.8,70.6,30.07,South,180,0.0,3.6,43,0.00,,,0.00,WUHU216HW,2013-09-04 19:41:00,
2013-09-04 15:46:00,96.3,72.7,30.07,SW,225,0.0,3.4,47,0.00,,,0.00,WUHU216HW,2013-09-04 19:46:00,
2013-09-04 15:51:00,96.5,72.9,30.07,South,180,0.4,2.7,47,0.00,,,0.00,WUHU216HW,2013-09-04 19:51:00,
2013-09-04 15:56:00,96.5,72.9,30.07,SW,225,0.4,1.1,47,0.00,,,0.00,WUHU216HW,2013-09-04 19:56:00,
2013-09-04 16:01:00,95.8,72.3,30.06,SW,225,1.1,1.8,47,0.00,,,0.00,WUHU216HW,2013-09-04 20:01:00,
2013-09-04 16:06:00,95.4,72.6,30.06,West,270,1.1,1.8,48,0.00,,,0.00,WUHU216HW,2013-09-04 20:06:00,
2013-09-04 16:11:00,94.7,71.9,30.06,SW,225,1.3,2.5,48,0.00,,,0.00,WUHU216HW,2013-09-04 20:11:00,
2013-09-04 16:16:00,94.3,72.3,30.06,SSE,158,1.1,3.1,49,0.00,,,0.00,WUHU216HW,2013-09-04 20:16:00,
2013-09-04 16:21:00,94.1,72.7,30.06,SE,135,0.4,3.1,50,0.00,,,0.00,WUHU216HW,2013-09-04 20:21:00,
2013-09-04 16:26:00,94.1,72.7,30.06,WNW,293,0.9,1.8,50,0.00,,,0.00,WUHU216HW,2013-09-04 20:26:00,
2013-09-04 16:31:00,94.1,72.7,30.06,South,180,1.1,2.0,50,0.00,,,0.00,WUHU216HW,2013-09-04 20:31:00,
2013-09-04 16:36:00,94.3,72.9,30.06,SSW,203,0.0,2.0,50,0.00,,,0.00,WUHU216HW,2013-09-04 20:36:00,
2013-09-04 16:41:00,94.5,72.5,30.06,South,180,1.3,2.0,49,0.00,,,0.00,WUHU216HW,2013-09-04 20:41:00,
2013-09-04 16:46:00,94.0,71.9,30.06,SSW,203,0.0,2.0,49,0.00,,,0.00,WUHU216HW,2013-09-04 20:46:00,
2013-09-04 16:51:00,93.2,72.4,30.06,SSW,203,0.7,1.1,51,0.00,,,0.00,WUHU216HW,2013-09-04 20:51:00,
2013-09-04 16:56:00,93.1,71.6,30.06,North,0,2.2,2.2,50,0.00,,,0.00,WUHU216HW,2013-09-04 20:56:00,
2013-09-04 17:01:00,92.5,71.7,30.06,NNW,338,1.1,2.2,51,0.00,,,0.00,WUHU216HW,2013-09-04 21:01:00,
2013-09-04 17:06:00,91.8,71.1,30.06,NNW,338,1.1,2.2,51,0.00,,,0.00,WUHU216HW,2013-09-04 21:06:00,
2013-09-04 17:11:00,91.4,70.7,30.06,NNE,23,1.1,4.0,51,0.00,,,0.00,WUHU216HW,2013-09-04 21:11:00,
2013-09-04 17:16:00,91.1,70.4,30.06,NW,315,2.5,4.0,51,0.00,,,0.00,WUHU216HW,2013-09-04 21:16:00,
2013-09-04 17:21:00,90.9,70.3,30.05,West,270,1.1,2.5,51,0.00,,,0.00,WUHU216HW,2013-09-04 21:21:00,
2013-09-04 17:26:00,91.1,69.2,30.05,NNW,338,0.9,2.9,49,0.00,,,0.00,WUHU216HW,2013-09-04 21:26:00,
2013-09-04 17:31:00,91.1,70.4,30.06,WNW,293,2.2,2.9,51,0.00,,,0.00,WUHU216HW,2013-09-04 21:31:00,
2013-09-04 17:36:00,91.1,69.8,30.05,NNW,338,0.4,2.2,50,0.00,,,0.00,WUHU216HW,2013-09-04 21:36:00,
2013-09-04 17:41:00,90.7,69.6,30.05,NNW,338,1.6,2.9,50,0.00,,,0.00,WUHU216HW,2013-09-04 21:41:00,
2013-09-04 17:46:00,90.4,69.8,30.05,NW,315,0.7,2.9,51,0.00,,,0.00,WUHU216HW,2013-09-04 21:46:00,
2013-09-04 17:51:00,89.8,69.3,30.05,West,270,1.8,2.9,51,0.00,,,0.00,WUHU216HW,2013-09-04 21:51:00,
2013-09-04 17:56:00,89.5,69.5,30.05,NNW,338,1.1,2.5,52,0.00,,,0.00,WUHU216HW,2013-09-04 21:56:00,
2013-09-04 18:01:00,89.1,69.8,30.05,NW,315,0.7,1.8,53,0.00,,,0.00,WUHU216HW,2013-09-04 22:01:00,
2013-09-04 18:06:00,89.3,70.4,30.05,North,0,0.9,1.6,54,0.00,,,0.00,WUHU216HW,2013-09-04 22:06:00,
2013-09-04 18:11:00,89.1,69.8,30.05,NW,315,0.2,2.5,53,0.00,,,0.00,WUHU216HW,2013-09-04 22:11:00,
2013-09-04 18:16:00,88.7,69.9,30.05,North,0,1.1,2.5,54,0.00,,,0.00,WUHU216HW,2013-09-04 22:16:00,
2013-09-04 18:21:00,88.4,70.1,30.05,North,0,0.7,1.8,55,0.00,,,0.00,WUHU216HW,2013-09-04 22:21:00,
2013-09-04 18:26:00,88.2,70.6,30.05,NNW,338,0.2,1.1,56,0.00,,,0.00,WUHU216HW,2013-09-04 22:26:00,
2013-09-04 18:31:00,88.2,70.6,30.05,NNW,338,0.4,0.7,56,0.00,,,0.00,WUHU216HW,2013-09-04 22:31:00,
2013-09-04 18:36:00,87.8,70.7,30.05,North,0,0.2,1.3,57,0.00,,,0.00,WUHU216HW,2013-09-04 22:36:00,
2013-09-04 18:41:00,87.7,71.1,30.05,NNW,338,0.4,1.3,58,0.00,,,0.00,WUHU216HW,2013-09-04 22:41:00,
2013-09-04 18:46:00,87.5,71.5,30.06,NNW,338,0.0,0.7,59,0.00,,,0.00,WUHU216HW,2013-09-04 22:46:00,
2013-09-04 18:51:00,87.3,71.3,30.06,NNW,338,0.0,0.4,59,0.00,,,0.00,WUHU216HW,2013-09-04 22:51:00,
2013-09-04 18:56:00,87.1,71.6,30.06,NNW,338,0.2,0.4,60,0.00,,,0.00,WUHU216HW,2013-09-04 22:56:00,
2013-09-04 19:01:00,86.8,71.3,30.06,NW,315,0.4,1.1,60,0.00,,,0.00,WUHU216HW,2013-09-04 23:01:00,
2013-09-04 19:06:00,86.4,70.9,30.06,NW,315,0.2,1.1,60,0.00,,,0.00,WUHU216HW,2013-09-04 23:06:00,
2013-09-04 19:11:00,86.2,71.2,30.06,NW,315,0.0,1.1,61,0.00,,,0.00,WUHU216HW,2013-09-04 23:11:00,
2013-09-04 19:16:00,85.7,71.2,30.07,NW,315,0.2,0.2,62,0.00,,,0.00,WUHU216HW,2013-09-04 23:16:00,
2013-09-04 19:21:00,85.3,71.3,30.07,NW,315,0.0,0.2,63,0.00,,,0.00,WUHU216HW,2013-09-04 23:21:00,
2013-09-04 19:26:00,84.8,70.8,30.07,NW,315,0.0,0.2,63,0.00,,,0.00,WUHU216HW,2013-09-04 23:26:00,
2013-09-04 19:31:00,84.4,70.9,30.07,NW,315,0.0,0.2,64,0.00,,,0.00,WUHU216HW,2013-09-04 23:31:00,
2013-09-04 19:36:00,84.2,71.2,30.07,NW,315,0.0,0.2,65,0.00,,,0.00,WUHU216HW,2013-09-04 23:36:00,
2013-09-04 19:41:00,83.7,70.7,30.07,NW,315,0.0,0.0,65,0.00,,,0.00,WUHU216HW,2013-09-04 23:41:00,
2013-09-04 19:46:00,83.2,70.6,30.07,NW,315,0.0,0.0,66,0.00,,,0.00,WUHU216HW,2013-09-04 23:46:00,
2013-09-04 19:51:00,82.6,70.5,30.07,NW,315,0.0,0.4,67,0.00,,,0.00,WUHU216HW,2013-09-04 23:51:00,
2013-09-04 19:56:00,82.1,70.4,30.07,NW,315,0.0,0.4,68,0.00,,,0.00,WUHU216HW,2013-09-04 23:56:00,
2013-09-04 20:01:00,81.7,70.1,30.07,NW,315,0.0,0.0,68,0.00,,,0.00,WUHU216HW,2013-09-05 00:01:00,
2013-09-04 20:06:00,81.5,70.4,30.08,NW,315,0.0,0.0,69,0.00,,,0.00,WUHU216HW,2013-09-05 00:06:00,
2013-09-04 20:11:00,81.4,70.2,30.07,NW,315,0.0,0.0,69,0.00,,,0.00,WUHU216HW,2013-09-05 00:11:00,
2013-09-04 20:16:00,81.2,70.0,30.08,NW,315,0.0,0.0,69,0.00,,,0.00,WUHU216HW,2013-09-05 00:16:00,
2013-09-04 20:21:00,81.0,70.4,30.08,NW,315,0.0,0.0,70,0.00,,,0.00,WUHU216HW,2013-09-05 00:21:00,
2013-09-04 20:26:00,80.6,70.0,30.08,NW,315,0.0,0.0,70,0.00,,,0.00,WUHU216HW,2013-09-05 00:26:00,
2013-09-04 20:31:00,80.3,70.0,30.08,NW,315,0.0,0.0,71,0.00,,,0.00,WUHU216HW,2013-09-05 00:31:00,
2013-09-04 20:36:00,80.3,70.0,30.08,NW,315,0.0,0.0,71,0.00,,,0.00,WUHU216HW,2013-09-05 00:36:00,
2013-09-04 20:41:00,80.3,70.0,30.08,NW,315,0.0,0.0,71,0.00,,,0.00,WUHU216HW,2013-09-05 00:41:00,
2013-09-04 20:46:00,79.9,70.1,30.09,NW,315,0.0,0.0,72,0.00,,,0.00,WUHU216HW,2013-09-05 00:46:00,
2013-09-04 20:51:00,79.4,69.9,30.09,NW,315,0.0,0.0,73,0.00,,,0.00,WUHU216HW,2013-09-05 00:51:00,
2013-09-04 20:56:00,79.2,70.2,30.09,NW,315,0.0,0.0,74,0.00,,,0.00,WUHU216HW,2013-09-05 00:56:00,
2013-09-04 21:01:00,79.0,70.0,30.09,NW,315,0.0,0.0,74,0.00,,,0.00,WUHU216HW,2013-09-05 01:01:00,
2013-09-04 21:06:00,78.8,70.2,30.10,NW,315,0.0,0.0,75,0.00,,,0.00,WUHU216HW,2013-09-05 01:06:00,
2013-09-04 21:11:00,78.8,70.2,30.10,NW,315,0.0,0.0,75,0.00,,,0.00,WUHU216HW,2013-09-05 01:11:00,
2013-09-04 21:16:00,78.7,70.0,30.10,NW,315,0.0,0.0,75,0.00,,,0.00,WUHU216HW,2013-09-05 01:16:00,
2013-09-04 21:21:00,78.5,69.8,30.10,NW,315,0.0,0.0,75,0.00,,,0.00,WUHU216HW,2013-09-05 01:21:00,
2013-09-04 21:26:00,78.3,69.7,30.10,NW,315,0.0,0.0,75,0.00,,,0.00,WUHU216HW,2013-09-05 01:26:00,
2013-09-04 21:31:00,78.1,69.5,30.11,NW,315,0.0,0.0,75,0.00,,,0.00,WUHU216HW,2013-09-05 01:31:00,
2013-09-04 21:36:00,78.1,69.9,30.11,SSE,158,0.0,0.7,76,0.00,,,0.00,WUHU216HW,2013-09-05 01:36:00,
2013-09-04 21:41:00,77.8,69.6,30.11,SSE,158,0.0,0.7,76,0.00,,,0.00,WUHU216HW,2013-09-05 01:41:00,
2013-09-04 21:46:00,77.6,69.8,30.11,SSE,158,0.0,0.4,77,0.00,,,0.00,WUHU216HW,2013-09-05 01:46:00,
2013-09-04 21:51:00,77.6,69.8,30.11,SSE,158,0.0,0.0,77,0.00,,,0.00,WUHU216HW,2013-09-05 01:51:00,
2013-09-04 21:56:00,77.4,69.6,30.12,SSE,158,0.0,0.0,77,0.00,,,0.00,WUHU216HW,2013-09-05 01:56:00,
2013-09-04 22:01:00,77.4,70.0,30.12,SSE,158,0.0,0.0,78,0.00,,,0.00,WUHU216HW,2013-09-05 02:01:00,
2013-09-04 22:06:00,77.2,69.9,30.12,SSE,158,0.0,0.0,78,0.00,,,0.00,WUHU216HW,2013-09-05 02:06:00,
2013-09-04 22:11:00,77.0,69.7,30.12,SSE,158,0.0,0.0,78,0.00,,,0.00,WUHU216HW,2013-09-05 02:11:00,
2013-09-04 22:16:00,77.0,69.7,30.12,SSE,158,0.0,0.0,78,0.00,,,0.00,WUHU216HW,2013-09-05 02:16:00,
2013-09-04 22:21:00,77.0,69.7,30.12,SSE,158,0.0,0.0,78,0.00,,,0.00,WUHU216HW,2013-09-05 02:21:00,
2013-09-04 22:26:00,77.0,69.7,30.12,SSE,158,0.0,0.0,78,0.00,,,0.00,WUHU216HW,2013-09-05 02:26:00,
2013-09-04 22:31:00,76.9,69.9,30.12,SW,225,0.0,0.0,79,0.00,,,0.00,WUHU216HW,2013-09-05 02:31:00,
2013-09-04 22:36:00,76.9,70.2,30.12,SE,135,0.4,0.4,80,0.00,,,0.00,WUHU216HW,2013-09-05 02:36:00,
2013-09-04 22:41:00,76.9,70.2,30.13,SE,135,0.4,0.4,80,0.00,,,0.00,WUHU216HW,2013-09-05 02:41:00,
2013-09-04 22:46:00,76.9,70.2,30.13,SE,135,0.7,0.7,80,0.00,,,0.00,WUHU216HW,2013-09-05 02:46:00,
2013-09-04 22:51:00,76.9,70.2,30.13,SSE,158,0.0,0.7,80,0.00,,,0.00,WUHU216HW,2013-09-05 02:51:00,
2013-09-04 22:56:00,76.9,70.2,30.12,ENE,68,0.9,0.9,80,0.00,,,0.00,WUHU216HW,2013-09-05 02:56:00,
2013-09-04 23:01:00,77.0,70.4,30.12,ENE,68,0.0,0.9,80,0.00,,,0.00,WUHU216HW,2013-09-05 03:01:00,
2013-09-04 23:06:00,77.0,70.4,30.13,East,90,0.0,0.9,80,0.00,,,0.00,WUHU216HW,2013-09-05 03:06:00,
2013-09-04 23:11:00,77.0,70.4,30.13,SSW,203,0.0,0.0,80,0.00,,,0.00,WUHU216HW,2013-09-05 03:11:00,
2013-09-04 23:16:00,77.0,70.4,30.13,SSW,203,0.0,0.0,80,0.00,,,0.00,WUHU216HW,2013-09-05 03:16:00,
2013-09-04 23:21:00,76.9,70.2,30.13,SSW,203,0.0,0.2,80,0.00,,,0.00,WUHU216HW,2013-09-05 03:21:00,
2013-09-04 23:26:00,76.7,70.0,30.13,SSW,203,0.0,0.2,80,0.00,,,0.00,WUHU216HW,2013-09-05 03:26:00,
2013-09-04 23:31:00,76.7,70.0,30.14,SSW,203,0.0,0.4,80,0.00,,,0.00,WUHU216HW,2013-09-05 03:31:00,
2013-09-04 23:36:00,76.7,70.0,30.13,SW,225,0.0,0.4,80,0.00,,,0.00,WUHU216HW,2013-09-05 03:36:00,
2013-09-04 23:41:00,76.7,70.4,30.13,SSW,203,0.2,0.4,81,0.00,,,0.00,WUHU216HW,2013-09-05 03:41:00,
2013-09-04 23:46:00,76.7,70.4,30.13,SSW,203,0.4,0.4,81,0.00,,,0.00,WUHU216HW,2013-09-05 03:46:00,
2013-09-04 23:51:00,76.7,70.4,30.13,SSW,203,0.0,0.4,81,0.00,,,0.00,WUHU216HW,2013-09-05 03:51:00,
2013-09-04 23:56:00,76.7,70.4,30.13,SSW,203,0.0,0.4,81,0.00,,,0.00,WUHU216HW,2013-09-05 03:56:00,